Weather History for Olean, NY

Change the Weather History Date:

Saturday, October 6, 2012

  Actual Average (KBFD) Record (KBFD)
Temperature  
Mean Temperature 44 °F 49 °F  
Max Temperature 51 °F 61 °F 79 °F (2007)
Min Temperature 37 °F 38 °F 18 °F (1958)
Degree Days  
Heating Degree Days 21 11  
Month to date heating degree days 63  
Since 1 July heating degree days 480  
Cooling Degree Days 0 0  
Month to date cooling degree days 0  
Year to date cooling degree days 192  
Moisture  
Dew Point 40 °F    
Average Humidity 88    
Maximum Humidity 100    
Minimum Humidity 57    
Precipitation  
Precipitation 0.00 in 0.12 in 1.34 in (1959)
Month to date precipitation 0.73  
Year to date precipitation 34.60  
Sea Level Pressure  
Sea Level Pressure 29.91 in    
Wind  
Wind Speed 4 mph ()    
Max Wind Speed 14 mph    
Max Gust Speed 24 mph    
Visibility 8.5 miles    
Events Rain    
T = Trace of Precipitation, MM = Missing Value Source: Averaged Metar Reports

Daily Weather History Graph

Daily Weather History Graph

Search for Another Location

Airport:

Trip Planner

Search our weather history database for the weather conditions in past years. The results will help you decide how hot, cold, wet, or windy it might be!

Date:

Astronomy

Oct. 06, 2012 Rise Set
Actual Time 7:16 AM EDT 6:45 PM EDT
Civil Twilight 6:48 AM EDT 7:13 PM EDT
Nautical Twilight 6:16 AM EDT 7:46 PM EDT
Astronomical Twilight 5:43 AM EDT 8:18 PM EDT
Moon 10:54 PM EDT (10/6) 1:14 PM EDT (10/6)
Length of Visible Light 12h 25m
Length of Day
11h 29m
Waning Gibbous, 65% of the Moon is Illuminated
Oct 6
Waning Gibbous
Oct 8
Last Quarter
Oct 15
New
Oct 21
First Quarter
Oct 29
Full

Hourly Weather History & Observations

Time (EDT) Temp. Windchill Dew Point Humidity Pressure Visibility Wind Dir Wind Speed Gust Speed Precip Events Conditions
12:15 AM 51.8 °F - 51.8 °F 100% 29.87 in 7.0 mi Calm Calm - N/A   Overcast
12:35 AM 51.8 °F - 51.8 °F 100% 29.87 in 7.0 mi Calm Calm - N/A   Overcast
12:55 AM 51.8 °F - 51.8 °F 100% 29.86 in 2.5 mi NW 3.5 mph - N/A   Overcast
1:15 AM 51.8 °F - 51.8 °F 100% 29.86 in 1.0 mi Calm Calm - N/A Rain Light Rain
1:35 AM 51.8 °F - 51.8 °F 100% 29.85 in 4.0 mi NW 3.5 mph - N/A Rain Light Rain
1:55 AM 51.8 °F - 51.8 °F 100% 29.85 in 4.0 mi NW 4.6 mph - N/A Rain Light Rain
2:15 AM 50.0 °F - 50.0 °F 100% 29.84 in 10.0 mi Calm Calm - N/A Rain Light Rain
2:55 AM 50.0 °F - 50.0 °F 100% 29.84 in 7.0 mi WNW 6.9 mph - N/A Rain Rain
3:15 AM 48.2 °F - 48.2 °F 100% 29.81 in 7.0 mi NW 5.8 mph - N/A Rain Light Rain
3:35 AM 46.4 °F - 46.4 °F 100% 29.80 in 10.0 mi Calm Calm - N/A Rain Rain
3:55 AM 46.4 °F - 46.4 °F 100% 29.80 in 10.0 mi Calm Calm - N/A   Drizzle
4:15 AM 44.6 °F 42.2 °F 44.6 °F 100% 29.81 in 7.0 mi WNW 4.6 mph - N/A Rain Rain
4:35 AM 44.6 °F 40.7 °F 44.6 °F 100% 29.84 in 5.0 mi WNW 6.9 mph 17.3 mph N/A Rain Rain
4:55 AM 44.6 °F 40.2 °F 44.6 °F 100% 29.85 in 7.0 mi WNW 8.1 mph - N/A Rain Rain
5:35 AM 44.6 °F 42.2 °F 44.6 °F 100% 29.83 in 7.0 mi WNW 4.6 mph - N/A Rain Rain
5:55 AM 44.6 °F - 44.6 °F 100% 29.84 in 10.0 mi Calm Calm - N/A Rain Light Rain
6:15 AM 44.6 °F - 44.6 °F 100% 29.84 in 10.0 mi Calm Calm - N/A Rain Rain
6:35 AM 44.6 °F 43.1 °F 44.6 °F 100% 29.84 in 10.0 mi WNW 3.5 mph - N/A Rain Light Rain
6:55 AM 42.8 °F 40.1 °F 42.8 °F 100% 29.85 in 10.0 mi WNW 4.6 mph - N/A   Overcast
7:15 AM 42.8 °F 40.1 °F 42.8 °F 100% 29.85 in 7.0 mi WNW 4.6 mph - N/A   Overcast
7:35 AM 42.8 °F 38.0 °F 42.8 °F 100% 29.85 in 10.0 mi WNW 8.1 mph - N/A   Overcast
7:55 AM 42.8 °F 38.6 °F 42.8 °F 100% 29.85 in 5.0 mi WNW 6.9 mph - N/A   Light Drizzle
8:15 AM 42.8 °F 40.1 °F 42.8 °F 100% 29.86 in 5.0 mi WNW 4.6 mph - N/A   Overcast
8:35 AM 42.8 °F 40.1 °F 42.8 °F 100% 29.87 in 2.5 mi West 4.6 mph - N/A   Drizzle
8:55 AM 42.8 °F 37.5 °F 42.8 °F 100% 29.87 in 5.0 mi WNW 9.2 mph - N/A   Light Drizzle
9:15 AM 42.8 °F 38.6 °F 42.8 °F 100% 29.88 in 10.0 mi West 6.9 mph - N/A   Overcast
9:35 AM 42.8 °F 40.1 °F 41.0 °F 93% 29.88 in 10.0 mi West 4.6 mph - N/A   Overcast
10:15 AM 42.8 °F - 41.0 °F 93% 29.89 in 10.0 mi Calm Calm - N/A   Overcast
10:35 AM 42.8 °F - 41.0 °F 93% 29.90 in 4.0 mi Calm Calm - N/A   Drizzle
10:55 AM 41.0 °F 38.0 °F 41.0 °F 100% 29.90 in 7.0 mi West 4.6 mph - N/A Rain Rain
11:15 AM 42.8 °F 40.1 °F 41.0 °F 93% 29.91 in 7.0 mi West 4.6 mph - N/A   Light Drizzle
11:35 AM 42.8 °F 41.1 °F 41.0 °F 93% 29.91 in 10.0 mi West 3.5 mph - N/A   Overcast
11:55 AM 42.8 °F 41.1 °F 41.0 °F 93% 29.91 in 10.0 mi West 3.5 mph - N/A   Overcast
12:15 PM 44.6 °F 40.7 °F 42.8 °F 93% 29.90 in 10.0 mi WNW 6.9 mph - N/A   Mostly Cloudy
12:35 PM 44.6 °F 40.2 °F 39.2 °F 81% 29.91 in 10.0 mi WNW 8.1 mph 21.9 mph N/A   Mostly Cloudy
12:55 PM 46.4 °F 42.9 °F 41.0 °F 81% 29.91 in 10.0 mi West 6.9 mph 17.3 mph N/A   Mostly Cloudy
1:15 PM 46.4 °F 42.9 °F 37.4 °F 71% 29.90 in 10.0 mi WNW 6.9 mph - N/A   Mostly Cloudy
1:35 PM 46.4 °F 44.3 °F 35.6 °F 66% 29.91 in 10.0 mi WNW 4.6 mph 18.4 mph N/A   Mostly Cloudy
1:55 PM 46.4 °F 41.5 °F 33.8 °F 62% 29.91 in 10.0 mi WNW 10.4 mph 23.0 mph N/A   Overcast
2:15 PM 46.4 °F 42.4 °F 35.6 °F 66% 29.92 in 10.0 mi West 8.1 mph - N/A   Overcast
2:35 PM 48.2 °F - 35.6 °F 62% 29.92 in 10.0 mi West 12.7 mph 23.0 mph N/A   Overcast
2:55 PM 46.4 °F 42.9 °F 35.6 °F 66% 29.92 in 10.0 mi West 6.9 mph - N/A   Mostly Cloudy
3:15 PM 46.4 °F 41.1 °F 33.8 °F 62% 29.92 in 10.0 mi West 11.5 mph 19.6 mph N/A   Scattered Clouds
3:35 PM 46.4 °F 41.1 °F 33.8 °F 62% 29.92 in 10.0 mi West 11.5 mph 18.4 mph N/A   Mostly Cloudy
3:55 PM 46.4 °F 41.5 °F 33.8 °F 62% 29.92 in 10.0 mi WNW 10.4 mph 18.4 mph N/A   Overcast
4:15 PM 46.4 °F 43.5 °F 33.8 °F 62% 29.93 in 10.0 mi West 5.8 mph 17.3 mph N/A   Overcast
4:35 PM 46.4 °F 43.5 °F 33.8 °F 62% 29.93 in 10.0 mi West 5.8 mph 17.3 mph N/A   Overcast
4:55 PM 46.4 °F 41.1 °F 32.0 °F 57% 29.93 in 10.0 mi WSW 11.5 mph 19.6 mph N/A   Mostly Cloudy
5:15 PM 44.6 °F 38.8 °F 32.0 °F 61% 29.94 in 10.0 mi West 11.5 mph 24.2 mph N/A   Mostly Cloudy
5:35 PM 44.6 °F 38.1 °F 32.0 °F 61% 29.94 in 10.0 mi West 13.8 mph 20.7 mph N/A   Overcast
5:55 PM 44.6 °F 39.2 °F 32.0 °F 61% 29.95 in 10.0 mi West 10.4 mph 18.4 mph N/A   Overcast
6:15 PM 44.6 °F 39.7 °F 33.8 °F 66% 29.96 in 10.0 mi West 9.2 mph 16.1 mph N/A   Overcast
6:35 PM 42.8 °F 36.6 °F 33.8 °F 70% 29.96 in 10.0 mi West 11.5 mph 23.0 mph N/A   Overcast
6:55 PM 42.8 °F 38.6 °F 33.8 °F 70% 29.97 in 10.0 mi West 6.9 mph 16.1 mph N/A   Overcast
7:15 PM 42.8 °F 37.0 °F 33.8 °F 70% 29.98 in 10.0 mi WNW 10.4 mph - N/A   Overcast
7:35 PM 41.0 °F 34.7 °F 35.6 °F 81% 30.00 in 10.0 mi WNW 10.4 mph 18.4 mph N/A Rain Rain
7:55 PM 39.2 °F - 37.4 °F 93% 30.00 in 10.0 mi Calm Calm - N/A   Overcast
8:15 PM 39.2 °F - 37.4 °F 93% 30.01 in 10.0 mi Calm Calm - N/A   Overcast
8:35 PM 39.2 °F 35.9 °F 37.4 °F 93% 30.01 in 7.0 mi WNW 4.6 mph - N/A Rain Heavy Rain
8:55 PM 37.4 °F 32.8 °F 37.4 °F 100% 30.02 in 7.0 mi West 5.8 mph - N/A Rain Light Rain
9:15 PM 37.4 °F 32.1 °F 37.4 °F 100% 30.02 in 7.0 mi WSW 6.9 mph - N/A Rain Light Rain
9:35 PM 37.4 °F 34.9 °F 37.4 °F 100% 30.02 in 10.0 mi West 3.5 mph - N/A   Overcast
9:55 PM 37.4 °F - 37.4 °F 100% 30.03 in 10.0 mi Calm Calm - N/A   Overcast
10:15 PM 39.2 °F 35.9 °F 37.4 °F 93% 30.02 in 10.0 mi SW 4.6 mph - N/A   Overcast
10:35 PM 39.2 °F 37.0 °F 37.4 °F 93% 30.03 in 10.0 mi SW 3.5 mph - N/A   Overcast
10:55 PM 37.4 °F 32.8 °F 37.4 °F 100% 30.03 in 10.0 mi SW 5.8 mph - N/A   Overcast
11:15 PM 39.2 °F 35.0 °F 37.4 °F 93% 30.03 in 10.0 mi SW 5.8 mph - N/A   Overcast
11:35 PM 39.2 °F 35.9 °F 37.4 °F 93% 30.03 in 10.0 mi SSW 4.6 mph - N/A   Overcast
11:55 PM 39.2 °F 37.0 °F 37.4 °F 93% 30.03 in 10.0 mi SW 3.5 mph - N/A   Overcast